When you browse on this site, cookies collect data to enhance your experience and personalize the content and advertising you see.
Visit our Privacy Policy to learn more. By continuing to use the site, you agree to this use of cookies and data.
  • In Spain
  • List of Countries
  • For 7 days
  • Water Temperature
  • Satellite Maps
  • Weather Map
  • Weather Widgets
  • user-avatar
    Login

    Hourly Weather Salta

    Today, 16 December, Sunday

    Time Temperature Precipitation Wind Pressure Humidity
    00:00 +22°C° 0 mm 1 mps 652 mmHg 86%
    01:00 +22°C° 0 mm 1 mps 651 mmHg 86%
    02:00 +21°C° 0 mm 1 mps 651 mmHg 87%
    03:00 +21°C° 0 mm 1 mps 651 mmHg 87%
    04:00 +21°C° 0 mm 1 mps 651 mmHg 88%
    05:00 +21°C° 0 mm 1 mps 651 mmHg 89%
    06:00 +22°C° 0 mm 1 mps 652 mmHg 83%
    07:00 +23°C° 0 mm 1 mps 652 mmHg 78%
    08:00 +24°C° 0 mm 1 mps 653 mmHg 72%
    09:00 +26°C° 0.1 mm 2 mps 653 mmHg 67%
    10:00 +27°C° 0.1 mm 2 mps 653 mmHg 62%
    11:00 +28°C° 0.1 mm 3 mps 653 mmHg 57%
    12:00 +29°C° 0.1 mm 3 mps 652 mmHg 55%
    13:00 +29°C° 0.1 mm 3 mps 652 mmHg 54%
    14:00 +30°C° 0.1 mm 3 mps 651 mmHg 52%
    15:00 +29°C° 0.2 mm 3 mps 650 mmHg 54%
    16:00 +29°C° 0.2 mm 3 mps 650 mmHg 56%
    17:00 +29°C° 0.2 mm 3 mps 649 mmHg 58%
    18:00 +27°C° 0.4 mm 2 mps 649 mmHg 63%
    19:00 +26°C° 0.4 mm 2 mps 649 mmHg 69%
    20:00 +25°C° 0.4 mm 1 mps 649 mmHg 74%
    21:00 +24°C° 0.5 mm 1 mps 650 mmHg 75%
    22:00 +24°C° 0.5 mm 1 mps 650 mmHg 75%
    23:00 +23°C° 0.5 mm 1 mps 651 mmHg 76%

    Tomorrow, 17 December, Monday

    Time Temperature Precipitation Wind Pressure Humidity
    00:00 +23°C° 0.5 mm 1 mps 650 mmHg 75%
    01:00 +23°C° 0.5 mm 1 mps 650 mmHg 74%
    02:00 +23°C° 0.5 mm 1 mps 650 mmHg 72%
    03:00 +23°C° 0.2 mm 1 mps 649 mmHg 73%
    04:00 +23°C° 0.2 mm 1 mps 649 mmHg 73%
    05:00 +23°C° 0.2 mm 1 mps 649 mmHg 73%
    06:00 +24°C° 0.1 mm 1 mps 650 mmHg 69%
    07:00 +25°C° 0.1 mm 1 mps 650 mmHg 65%
    08:00 +26°C° 0.1 mm 1 mps 651 mmHg 61%
    09:00 +27°C° 0.1 mm 1 mps 651 mmHg 55%
    10:00 +29°C° 0.1 mm 1 mps 652 mmHg 49%
    11:00 +31°C° 0.1 mm 2 mps 652 mmHg 43%
    12:00 +31°C° 0.4 mm 1 mps 652 mmHg 43%
    13:00 +30°C° 0.4 mm 1 mps 651 mmHg 43%
    14:00 +30°C° 0.4 mm 1 mps 651 mmHg 44%
    15:00 +29°C° 0.6 mm 1 mps 650 mmHg 48%
    16:00 +28°C° 0.6 mm 1 mps 650 mmHg 52%
    17:00 +27°C° 0.6 mm 1 mps 649 mmHg 56%
    18:00 +25°C° 0.3 mm 1 mps 649 mmHg 61%
    19:00 +24°C° 0.3 mm 1 mps 649 mmHg 65%
    20:00 +22°C° 0.3 mm 1 mps 649 mmHg 70%
    21:00 +22°C° 0.2 mm 1 mps 649 mmHg 70%
    22:00 +22°C° 0.2 mm 1 mps 650 mmHg 71%
    23:00 +22°C° 0.2 mm 1 mps 650 mmHg 71%

    Day after tomorrow, 18 December, Tuesday

    Time Temperature Precipitation Wind Pressure Humidity
    00:00 +22°C° 0 mm 1 mps 650 mmHg 71%
    01:00 +21°C° 0 mm 1 mps 649 mmHg 70%
    02:00 +21°C° 0 mm 1 mps 649 mmHg 69%
    03:00 +21°C° 0 mm 1 mps 649 mmHg 69%
    04:00 +21°C° 0 mm 1 mps 649 mmHg 69%
    05:00 +20°C° 0 mm 2 mps 650 mmHg 69%
    06:00 +21°C° 0.1 mm 2 mps 651 mmHg 68%
    07:00 +23°C° 0.1 mm 2 mps 652 mmHg 67%
    08:00 +24°C° 0.1 mm 2 mps 653 mmHg 65%
    09:00 +25°C° 0.1 mm 2 mps 653 mmHg 63%
    10:00 +26°C° 0.1 mm 3 mps 653 mmHg 61%
    11:00 +26°C° 0.1 mm 3 mps 653 mmHg 58%
    12:00 +27°C° 0.2 mm 3 mps 653 mmHg 57%
    13:00 +27°C° 0.2 mm 3 mps 652 mmHg 56%
    14:00 +28°C° 0.2 mm 4 mps 652 mmHg 56%
    15:00 +27°C° 0.4 mm 3 mps 652 mmHg 60%
    16:00 +26°C° 0.4 mm 3 mps 651 mmHg 65%
    17:00 +25°C° 0.4 mm 3 mps 651 mmHg 70%
    18:00 +24°C° 3 mm 3 mps 651 mmHg 76%
    19:00 +23°C° 3 mm 2 mps 652 mmHg 82%
    20:00 +20°C° 3 mm 2 mps 652 mmHg 88%
    21:00 +20°C° 1.6 mm 2 mps 652 mmHg 88%
    22:00 +20°C° 1.6 mm 2 mps 652 mmHg 87%
    23:00 +21°C° 1.6 mm 1 mps 653 mmHg 87%

    19 December, Wednesday

    Time Temperature Precipitation Wind Pressure Humidity
    00:00 +21°C° 0.4 mm 1 mps 652 mmHg 87%
    01:00 +21°C° 0.4 mm 1 mps 651 mmHg 87%
    02:00 +21°C° 0.4 mm 1 mps 651 mmHg 87%
    03:00 +20°C° 0.3 mm 1 mps 651 mmHg 87%
    04:00 +20°C° 0.3 mm 1 mps 650 mmHg 88%
    05:00 +20°C° 0.3 mm 1 mps 650 mmHg 88%
    06:00 +21°C° 0.4 mm 1 mps 651 mmHg 86%
    07:00 +21°C° 0.4 mm 1 mps 651 mmHg 84%
    08:00 +22°C° 0.4 mm 1 mps 651 mmHg 83%
    09:00 +23°C° 0 mm 1 mps 651 mmHg 76%
    10:00 +25°C° 0 mm 2 mps 651 mmHg 70%
    11:00 +26°C° 0 mm 2 mps 651 mmHg 64%
    12:00 +27°C° 0.1 mm 2 mps 650 mmHg 63%
    13:00 +27°C° 0.1 mm 3 mps 649 mmHg 62%
    14:00 +27°C° 0.1 mm 3 mps 648 mmHg 61%
    15:00 +27°C° 0.1 mm 3 mps 648 mmHg 64%
    16:00 +26°C° 0.1 mm 3 mps 647 mmHg 67%
    17:00 +26°C° 0.1 mm 3 mps 647 mmHg 70%
    18:00 +25°C° 0.2 mm 2 mps 647 mmHg 74%
    19:00 +24°C° 0.2 mm 2 mps 647 mmHg 78%
    20:00 +23°C° 0.2 mm 1 mps 647 mmHg 83%
    21:00 +22°C° 0.1 mm 1 mps 648 mmHg 83%
    22:00 +22°C° 0.1 mm 1 mps 648 mmHg 84%
    23:00 +22°C° 0.1 mm 1 mps 648 mmHg 85%

    20 December, Thursday

    Time Temperature Precipitation Wind Pressure Humidity
    00:00 +21°C° 0.1 mm 1 mps 648 mmHg 84%
    01:00 +21°C° 0.1 mm 1 mps 647 mmHg 84%
    02:00 +21°C° 0.1 mm 1 mps 647 mmHg 83%
    03:00 +21°C° 0 mm 1 mps 647 mmHg 82%
    04:00 +21°C° 0 mm 1 mps 647 mmHg 81%
    05:00 +20°C° 0 mm 1 mps 647 mmHg 80%
    06:00 +22°C° 0 mm 1 mps 648 mmHg 73%
    07:00 +24°C° 0 mm 2 mps 649 mmHg 66%
    08:00 +26°C° 0 mm 2 mps 651 mmHg 59%
    09:00 +27°C° 0.1 mm 2 mps 651 mmHg 56%
    10:00 +28°C° 0.1 mm 3 mps 651 mmHg 52%
    11:00 +30°C° 0.1 mm 3 mps 651 mmHg 48%
    12:00 +30°C° 0.6 mm 4 mps 651 mmHg 48%
    13:00 +30°C° 0.6 mm 4 mps 650 mmHg 47%
    14:00 +30°C° 0.6 mm 4 mps 650 mmHg 47%
    15:00 +29°C° 1 mm 4 mps 649 mmHg 52%
    16:00 +28°C° 1 mm 3 mps 649 mmHg 56%
    17:00 +27°C° 1 mm 3 mps 648 mmHg 61%
    18:00 +25°C° 0.8 mm 2 mps 648 mmHg 68%
    19:00 +24°C° 0.8 mm 2 mps 648 mmHg 75%
    20:00 +22°C° 0.8 mm 1 mps 649 mmHg 83%
    21:00 +22°C° 0.3 mm 1 mps 649 mmHg 82%
    22:00 +21°C° 0.3 mm 1 mps 649 mmHg 82%
    23:00 +21°C° 0.3 mm 1 mps 650 mmHg 81%

    21 December, Friday

    Time Temperature Precipitation Wind Pressure Humidity
    00:00 +21°C° 0 mm 1 mps 649 mmHg 79%
    01:00 +20°C° 0 mm 1 mps 649 mmHg 77%
    02:00 +20°C° 0 mm 1 mps 649 mmHg 76%
    03:00 +20°C° 0 mm 1 mps 649 mmHg 74%
    04:00 +20°C° 0 mm 1 mps 649 mmHg 73%
    05:00 +20°C° 0 mm 1 mps 649 mmHg 72%
    06:00 +22°C° 0 mm 1 mps 650 mmHg 67%
    07:00 +23°C° 0 mm 1 mps 651 mmHg 62%
    08:00 +25°C° 0 mm 1 mps 651 mmHg 57%
    09:00 +26°C° 0 mm 2 mps 651 mmHg 53%
    10:00 +28°C° 0 mm 2 mps 651 mmHg 49%
    11:00 +29°C° 0 mm 3 mps 652 mmHg 45%
    12:00 +29°C° 0.1 mm 3 mps 651 mmHg 45%
    13:00 +30°C° 0.1 mm 3 mps 650 mmHg 45%
    14:00 +30°C° 0.1 mm 3 mps 649 mmHg 45%
    15:00 +29°C° 0.5 mm 3 mps 649 mmHg 49%
    16:00 +28°C° 0.5 mm 3 mps 648 mmHg 54%
    17:00 +27°C° 0.5 mm 3 mps 647 mmHg 58%
    18:00 +26°C° 0.4 mm 2 mps 648 mmHg 64%
    19:00 +25°C° 0.4 mm 2 mps 648 mmHg 69%
    20:00 +23°C° 0.4 mm 1 mps 649 mmHg 74%
    21:00 +23°C° 0.3 mm 1 mps 649 mmHg 76%
    22:00 +22°C° 0.3 mm 1 mps 650 mmHg 77%
    23:00 +22°C° 0.3 mm 1 mps 650 mmHg 78%
    Show more